FDX3868 EPKT-EBLG

Flight info

Callsign FDX3868
Flight time 1h 33m
Altitude 38000
Route ADADO DCT UTEVO DCT ETUDA DCT OMIFU DCT BEKVI DCT OKG L984 BAMTO/N0374F240 Z93 KOSEK Z104 GESLO
Aircraft B738/M-SDE2E3FGHIRWXY/LB1

Departure

Time 2026-05-05 09:57
Airport Katowice Wojciech Korfanty International Airport (EPKT)

Arrival

Time 2026-05-05 11:31
Airport Liège Airport (EBLG)
Time Latitude Longitude Altitude Speed Heading
2026-05-05 09:34 50.47143 19.09642 997 ft 0 kts 180°
2026-05-05 09:51 50.47165 19.09642 997 ft 4 kts 180°
2026-05-05 09:51 50.47191 19.09641 1001 ft 4 kts 171°
2026-05-05 09:51 50.47216 19.09628 998 ft 4 kts 142°
2026-05-05 09:51 50.47230 19.09598 999 ft 3 kts 94°
2026-05-05 09:52 50.47230 19.09585 998 ft 0 kts 90°
2026-05-05 09:54 50.47230 19.09594 997 ft 2 kts 90°
2026-05-05 09:54 50.47230 19.09645 1003 ft 7 kts 90°
2026-05-05 09:55 50.47229 19.09746 1000 ft 11 kts 90°
2026-05-05 09:55 50.47229 19.09890 999 ft 15 kts 90°
2026-05-05 09:55 50.47254 19.10061 1000 ft 18 kts 52°
2026-05-05 09:55 50.47338 19.10230 998 ft 21 kts 52°
2026-05-05 09:56 50.47416 19.10386 998 ft 9 kts 52°
2026-05-05 09:56 50.47475 19.10445 999 ft 12 kts
2026-05-05 09:56 50.47554 19.10439 1000 ft 13 kts 348°
2026-05-05 09:56 50.47596 19.10313 1000 ft 16 kts 271°
2026-05-05 09:57 50.47595 19.09930 1000 ft 69 kts 270°
2026-05-05 09:57 50.47596 19.08799 999 ft 137 kts 269°
2026-05-05 09:57 50.47617 19.06998 1089 ft 185 kts 266°
2026-05-05 09:57 50.47655 19.05016 2060 ft 172 kts 265°
2026-05-05 09:58 50.47686 19.03145 3038 ft 175 kts 266°
2026-05-05 09:58 50.47672 19.01166 3720 ft 198 kts 265°
2026-05-05 09:58 50.47673 18.98833 4017 ft 231 kts 266°
2026-05-05 09:58 50.47723 18.96170 4492 ft 251 kts 265°
2026-05-05 09:59 50.47630 18.93344 5005 ft 264 kts 255°
2026-05-05 09:59 50.47166 18.90633 6153 ft 252 kts 246°
2026-05-05 09:59 50.46583 18.88056 7110 ft 253 kts 245°
2026-05-05 09:59 50.45962 18.85419 7956 ft 259 kts 246°
2026-05-05 10:00 50.45339 18.82755 8864 ft 263 kts 246°
2026-05-05 10:00 50.44706 18.80010 9681 ft 269 kts 247°
2026-05-05 10:00 50.44073 18.77235 10469 ft 275 kts 248°
2026-05-05 10:00 50.43402 18.74276 10712 ft 301 kts 248°
2026-05-05 10:01 50.42679 18.71065 11032 ft 321 kts 248°
2026-05-05 10:01 50.41930 18.67716 11704 ft 328 kts 248°
2026-05-05 10:01 50.41174 18.64320 12479 ft 332 kts 248°
2026-05-05 10:01 50.40420 18.60928 13285 ft 335 kts 248°
2026-05-05 10:02 50.39637 18.57410 14010 ft 340 kts 249°
2026-05-05 10:02 50.38852 18.53889 14734 ft 344 kts 248°
2026-05-05 10:02 50.38069 18.50376 15468 ft 347 kts 249°
2026-05-05 10:02 50.37268 18.46789 16171 ft 351 kts 249°
2026-05-05 10:03 50.36456 18.43162 16848 ft 355 kts 249°
2026-05-05 10:03 50.35634 18.39492 17549 ft 358 kts 249°
2026-05-05 10:03 50.34804 18.35798 18226 ft 361 kts 249°
2026-05-05 10:03 50.33965 18.32065 18787 ft 366 kts 249°
2026-05-05 10:04 50.33114 18.28287 19344 ft 369 kts 249°
2026-05-05 10:04 50.32254 18.24478 19886 ft 374 kts 249°
2026-05-05 10:04 50.31383 18.20627 20452 ft 377 kts 249°
2026-05-05 10:04 50.30502 18.16739 21022 ft 381 kts 249°
2026-05-05 10:05 50.29613 18.12823 21578 ft 384 kts 249°
2026-05-05 10:05 50.28714 18.08868 22102 ft 388 kts 249°
2026-05-05 10:05 50.27805 18.04877 22636 ft 392 kts 249°
2026-05-05 10:05 50.26886 18.00853 23157 ft 395 kts 250°
2026-05-05 10:06 50.25956 17.96782 23628 ft 398 kts 250°
2026-05-05 10:06 50.25021 17.92700 24089 ft 400 kts 249°
2026-05-05 10:06 50.24080 17.88597 24528 ft 403 kts 249°
2026-05-05 10:06 50.23130 17.84465 24942 ft 406 kts 249°
2026-05-05 10:07 50.22172 17.80308 25406 ft 407 kts 249°
2026-05-05 10:07 50.21327 17.76079 25825 ft 410 kts 256°
2026-05-05 10:07 50.20878 17.71725 26180 ft 415 kts 265°
2026-05-05 10:07 50.20858 17.67164 26667 ft 416 kts 270°
2026-05-05 10:08 50.20926 17.62651 27010 ft 419 kts 269°
2026-05-05 10:08 50.20974 17.58058 27366 ft 422 kts 269°
2026-05-05 10:08 50.20969 17.53544 27771 ft 423 kts 265°
2026-05-05 10:08 50.20617 17.49015 28135 ft 424 kts 257°
2026-05-05 10:09 50.19834 17.44554 28514 ft 425 kts 252°
2026-05-05 10:09 50.18964 17.40143 28865 ft 427 kts 252°
2026-05-05 10:09 50.18083 17.35733 29217 ft 430 kts 251°
2026-05-05 10:09 50.17209 17.31339 29586 ft 430 kts 252°
2026-05-05 10:10 50.16322 17.26839 29931 ft 432 kts 252°
2026-05-05 10:10 50.15429 17.22270 30172 ft 435 kts 252°
2026-05-05 10:10 50.14550 17.17760 30569 ft 433 kts 252°
2026-05-05 10:10 50.13678 17.13279 31046 ft 430 kts 252°
2026-05-05 10:11 50.12814 17.08842 31449 ft 428 kts 252°
2026-05-05 10:11 50.11947 17.04399 31773 ft 429 kts 252°
2026-05-05 10:11 50.11092 17.00032 32103 ft 428 kts 252°
2026-05-05 10:11 50.10217 16.95567 32585 ft 425 kts 252°
2026-05-05 10:12 50.09371 16.91267 32929 ft 424 kts 252°
2026-05-05 10:12 50.08500 16.86848 33224 ft 425 kts 252°
2026-05-05 10:12 50.07662 16.82609 33529 ft 425 kts 252°
2026-05-05 10:12 50.06772 16.78113 33901 ft 424 kts 252°
2026-05-05 10:13 50.05908 16.73763 34188 ft 423 kts 252°
2026-05-05 10:13 50.05022 16.69305 34443 ft 423 kts 252°
2026-05-05 10:13 50.04164 16.65000 34716 ft 423 kts 252°
2026-05-05 10:13 50.03312 16.60732 35029 ft 421 kts 252°
2026-05-05 10:14 50.02454 16.56447 35329 ft 420 kts 252°
2026-05-05 10:14 50.01664 16.51998 35593 ft 420 kts 258°
2026-05-05 10:14 50.01270 16.47465 35837 ft 420 kts 267°
2026-05-05 10:14 50.01277 16.42848 36131 ft 419 kts 270°
2026-05-05 10:15 50.01344 16.38289 36412 ft 418 kts 270°
2026-05-05 10:15 50.01411 16.33915 36653 ft 418 kts 270°
2026-05-05 10:15 50.01469 16.29479 36877 ft 418 kts 270°
2026-05-05 10:15 50.01516 16.25015 37140 ft 416 kts 269°
2026-05-05 10:16 50.01553 16.20530 37394 ft 415 kts 269°
2026-05-05 10:16 50.01583 16.16387 37576 ft 415 kts 269°
2026-05-05 10:16 50.01612 16.11950 37814 ft 415 kts 269°
2026-05-05 10:16 50.01639 16.07657 37830 ft 418 kts 269°
2026-05-05 10:17 50.01690 15.98884 37831 ft 416 kts 269°
2026-05-05 10:17 50.01948 15.90071 37837 ft 411 kts 272°
2026-05-05 10:18 50.02424 15.81208 37830 ft 408 kts 273°
2026-05-05 10:18 50.02885 15.72520 37830 ft 406 kts 272°
2026-05-05 10:19 50.03306 15.63986 37843 ft 413 kts 272°
2026-05-05 10:19 50.03707 15.55502 37839 ft 417 kts 272°
2026-05-05 10:20 50.04122 15.46554 37831 ft 420 kts 272°
2026-05-05 10:20 50.04502 15.38216 37828 ft 420 kts 272°
2026-05-05 10:21 50.04903 15.29275 37838 ft 420 kts 272°
2026-05-05 10:21 50.05295 15.20379 37834 ft 419 kts 272°
2026-05-05 10:22 50.05661 15.11938 37833 ft 417 kts 272°
2026-05-05 10:22 50.06047 15.02857 37829 ft 414 kts 271°
2026-05-05 10:23 50.06420 14.93928 37830 ft 412 kts 271°
2026-05-05 10:23 50.06783 14.85099 37833 ft 411 kts 271°
2026-05-05 10:24 50.07138 14.76297 37839 ft 410 kts 271°
2026-05-05 10:24 50.07411 14.67925 37836 ft 408 kts 269°
2026-05-05 10:25 50.07443 14.58935 37827 ft 408 kts 268°
2026-05-05 10:25 50.07441 14.50259 37837 ft 408 kts 268°
2026-05-05 10:26 50.07458 14.41861 37843 ft 409 kts 268°
2026-05-05 10:26 50.07485 14.32950 37864 ft 411 kts 268°
2026-05-05 10:27 50.07510 14.23922 37862 ft 412 kts 268°
2026-05-05 10:27 50.07527 14.15422 37853 ft 412 kts 268°
2026-05-05 10:28 50.07538 14.06855 37868 ft 413 kts 268°
2026-05-05 10:28 50.07543 13.99650 37864 ft 413 kts 268°
2026-05-05 10:29 50.07543 13.92983 37850 ft 414 kts 268°
2026-05-05 10:29 50.07538 13.85269 37826 ft 414 kts 268°
2026-05-05 10:30 50.07527 13.77001 37822 ft 414 kts 268°
2026-05-05 10:30 50.07519 13.71952 37841 ft 414 kts 268°
2026-05-05 10:31 50.07503 13.65407 37839 ft 413 kts 268°
2026-05-05 10:31 50.07477 13.56867 37823 ft 413 kts 268°
2026-05-05 10:32 50.07453 13.50465 37845 ft 412 kts 267°
2026-05-05 10:32 50.07414 13.41620 37828 ft 412 kts 267°
2026-05-05 10:33 50.07386 13.35926 37848 ft 411 kts 267°
2026-05-05 10:33 50.07344 13.28389 37857 ft 411 kts 267°
2026-05-05 10:34 50.07289 13.19466 37845 ft 411 kts 267°
2026-05-05 10:34 50.07237 13.12107 37848 ft 410 kts 267°
2026-05-05 10:35 50.07171 13.03499 37848 ft 409 kts 267°
2026-05-05 10:35 50.07097 12.94640 37853 ft 409 kts 266°
2026-05-05 10:36 50.07016 12.85818 37854 ft 408 kts 266°
2026-05-05 10:36 50.06929 12.76956 37850 ft 408 kts 266°
2026-05-05 10:37 50.06835 12.68139 37847 ft 407 kts 266°
2026-05-05 10:37 50.06735 12.59329 37844 ft 407 kts 266°
2026-05-05 10:38 50.06628 12.50521 37839 ft 407 kts 266°
2026-05-05 10:38 50.06515 12.41706 37837 ft 407 kts 266°
2026-05-05 10:39 50.06547 12.32886 37837 ft 408 kts 268°
2026-05-05 10:39 50.06709 12.24043 37839 ft 409 kts 268°
2026-05-05 10:40 50.06835 12.15194 37859 ft 409 kts 268°
2026-05-05 10:40 50.06934 12.06340 37859 ft 409 kts 268°
2026-05-05 10:41 50.07020 11.97532 37863 ft 410 kts 268°
2026-05-05 10:41 50.07100 11.88653 37867 ft 410 kts 267°
2026-05-05 10:42 50.07211 11.75318 37872 ft 411 kts 267°
2026-05-05 10:43 50.07277 11.66414 37864 ft 412 kts 267°
2026-05-05 10:43 50.07335 11.57485 37859 ft 412 kts 267°
2026-05-05 10:44 50.07386 11.48569 37859 ft 412 kts 267°
2026-05-05 10:44 50.07431 11.39655 37844 ft 412 kts 267°
2026-05-05 10:45 50.07471 11.30727 37847 ft 412 kts 267°
2026-05-05 10:45 50.07503 11.21807 37856 ft 412 kts 266°
2026-05-05 10:46 50.07518 11.12886 37850 ft 412 kts 266°
2026-05-05 10:46 50.07524 11.03974 37855 ft 412 kts 266°
2026-05-05 10:47 50.07525 10.95065 37847 ft 412 kts 266°
2026-05-05 10:47 50.07520 10.86150 37850 ft 411 kts 266°
2026-05-05 10:48 50.07509 10.77301 37847 ft 412 kts 266°
2026-05-05 10:48 50.07490 10.68387 37854 ft 412 kts 266°
2026-05-05 10:49 50.07463 10.59477 37855 ft 412 kts 266°
2026-05-05 10:49 50.07432 10.50553 37850 ft 413 kts 266°
2026-05-05 10:50 50.07393 10.41616 37854 ft 413 kts 266°
2026-05-05 10:50 50.07349 10.32674 37851 ft 414 kts 266°
2026-05-05 10:51 50.07297 10.23700 37851 ft 414 kts 266°
2026-05-05 10:51 50.07296 10.14710 37853 ft 415 kts 266°
2026-05-05 10:52 50.07282 10.05722 37851 ft 415 kts 265°
2026-05-05 10:52 50.07193 9.96784 37849 ft 415 kts 265°
2026-05-05 10:53 50.07099 9.87789 37852 ft 416 kts 265°
2026-05-05 10:53 50.07005 9.78794 37848 ft 416 kts 265°
2026-05-05 10:54 50.06918 9.69793 37849 ft 416 kts 265°
2026-05-05 10:54 50.06833 9.60790 37851 ft 416 kts 265°
2026-05-05 10:55 50.06737 9.51792 37850 ft 416 kts 265°
2026-05-05 10:55 50.06633 9.42782 37852 ft 416 kts 265°
2026-05-05 10:56 50.06526 9.33772 37854 ft 416 kts 265°
2026-05-05 10:56 50.06413 9.24759 37848 ft 416 kts 265°
2026-05-05 10:57 50.06294 9.15751 37849 ft 417 kts 265°
2026-05-05 10:57 50.05878 9.06820 37831 ft 409 kts 249°
2026-05-05 10:57 50.04750 9.02871 37852 ft 404 kts 236°
2026-05-05 10:58 50.03055 8.99411 37852 ft 402 kts 223°
2026-05-05 10:58 49.98528 8.94367 37853 ft 401 kts 213°
2026-05-05 10:59 49.94047 8.89222 37845 ft 403 kts 229°
2026-05-05 10:59 49.91307 8.81646 37852 ft 409 kts 252°
2026-05-05 11:00 49.90101 8.72967 37853 ft 413 kts 255°
2026-05-05 11:00 49.89526 8.68596 37715 ft 414 kts 255°
2026-05-05 11:00 49.88929 8.64222 37404 ft 414 kts 254°
2026-05-05 11:00 49.88314 8.59857 37159 ft 415 kts 254°
2026-05-05 11:01 49.87692 8.55498 36871 ft 412 kts 254°
2026-05-05 11:01 49.87189 8.51130 36591 ft 412 kts 261°
2026-05-05 11:01 49.87107 8.46691 36343 ft 413 kts 268°
2026-05-05 11:01 49.87402 8.42238 36078 ft 417 kts 276°
2026-05-05 11:02 49.88045 8.37859 35848 ft 417 kts 278°
2026-05-05 11:02 49.88738 8.33501 35579 ft 415 kts 278°
2026-05-05 11:02 49.89434 8.29166 35330 ft 412 kts 278°
2026-05-05 11:02 49.90114 8.24863 35069 ft 410 kts 277°
2026-05-05 11:03 49.90771 8.20628 34831 ft 408 kts 277°
2026-05-05 11:03 49.91423 8.16363 34582 ft 405 kts 277°
2026-05-05 11:03 49.92066 8.12112 34347 ft 403 kts 277°
2026-05-05 11:03 49.92704 8.07879 34106 ft 402 kts 276°
2026-05-05 11:04 49.93338 8.03665 33868 ft 400 kts 276°
2026-05-05 11:04 49.93968 7.99467 33585 ft 398 kts 276°
2026-05-05 11:04 49.94603 7.95295 33312 ft 397 kts 278°
2026-05-05 11:04 49.95346 7.91160 33034 ft 397 kts 280°
2026-05-05 11:05 49.96154 7.87052 32759 ft 397 kts 281°
2026-05-05 11:05 49.96967 7.82955 32503 ft 396 kts 281°
2026-05-05 11:05 49.97762 7.78866 32245 ft 395 kts 280°
2026-05-05 11:05 49.98543 7.74780 31989 ft 394 kts 280°
2026-05-05 11:06 49.99334 7.70699 31745 ft 395 kts 281°
2026-05-05 11:06 50.00164 7.66623 31491 ft 396 kts 282°
2026-05-05 11:06 50.01006 7.62548 31243 ft 396 kts 282°
2026-05-05 11:06 50.01837 7.58526 30978 ft 396 kts 282°
2026-05-05 11:07 50.02674 7.54448 30754 ft 395 kts 282°
2026-05-05 11:07 50.03502 7.50391 30505 ft 393 kts 283°
2026-05-05 11:07 50.04325 7.46342 30259 ft 392 kts 283°
2026-05-05 11:07 50.05140 7.42316 30017 ft 390 kts 283°
2026-05-05 11:08 50.05951 7.38301 29741 ft 388 kts 283°
2026-05-05 11:08 50.06754 7.34312 29458 ft 386 kts 283°
2026-05-05 11:08 50.07537 7.30330 29168 ft 382 kts 280°
2026-05-05 11:08 50.07998 7.26302 28883 ft 375 kts 271°
2026-05-05 11:09 50.08177 7.22265 28626 ft 373 kts 269°
2026-05-05 11:09 50.08319 7.18243 28330 ft 372 kts 269°
2026-05-05 11:09 50.08459 7.14224 28062 ft 370 kts 269°
2026-05-05 11:09 50.08608 7.10218 27885 ft 367 kts 270°
2026-05-05 11:10 50.08762 7.06298 27439 ft 360 kts 270°
2026-05-05 11:10 50.08917 7.02414 26749 ft 359 kts 270°
2026-05-05 11:10 50.09072 6.98567 25962 ft 362 kts 270°
2026-05-05 11:10 50.09231 6.94654 25263 ft 362 kts 270°
2026-05-05 11:11 50.09387 6.90751 24647 ft 360 kts 270°
2026-05-05 11:11 50.09513 6.86886 24066 ft 356 kts 268°
2026-05-05 11:11 50.09480 6.83045 23460 ft 354 kts 265°
2026-05-05 11:11 50.09393 6.79222 22792 ft 352 kts 265°
2026-05-05 11:12 50.09309 6.75434 22202 ft 347 kts 265°
2026-05-05 11:12 50.09224 6.71693 21635 ft 343 kts 265°
2026-05-05 11:12 50.09139 6.67994 21059 ft 340 kts 265°
2026-05-05 11:12 50.09055 6.64323 20490 ft 337 kts 265°
2026-05-05 11:13 50.08972 6.60687 19932 ft 334 kts 265°
2026-05-05 11:13 50.08889 6.57101 19477 ft 329 kts 264°
2026-05-05 11:13 50.08808 6.53570 19088 ft 322 kts 264°
2026-05-05 11:13 50.08729 6.50171 18757 ft 314 kts 264°
2026-05-05 11:14 50.08650 6.46810 18419 ft 307 kts 264°
2026-05-05 11:14 50.08571 6.43520 18102 ft 302 kts 264°
2026-05-05 11:14 50.08492 6.40273 17750 ft 298 kts 264°
2026-05-05 11:14 50.08424 6.37046 17425 ft 299 kts 265°
2026-05-05 11:15 50.08357 6.33746 17116 ft 313 kts 265°
2026-05-05 11:15 50.08288 6.30288 16790 ft 322 kts 265°
2026-05-05 11:15 50.08218 6.26798 16421 ft 322 kts 265°
2026-05-05 11:15 50.08146 6.23320 16063 ft 320 kts 265°
2026-05-05 11:16 50.08068 6.19874 15727 ft 318 kts 265°
2026-05-05 11:16 50.07959 6.16450 15396 ft 316 kts 264°
2026-05-05 11:16 50.07842 6.13043 15060 ft 314 kts 264°
2026-05-05 11:16 50.07778 6.09652 14742 ft 313 kts 268°
2026-05-05 11:17 50.07810 6.06271 14403 ft 312 kts 269°
2026-05-05 11:17 50.07873 6.02909 14074 ft 311 kts 274°
2026-05-05 11:17 50.08427 5.99662 13741 ft 312 kts 294°
2026-05-05 11:17 50.09588 5.96810 13414 ft 311 kts 304°
2026-05-05 11:18 50.10888 5.94122 13057 ft 310 kts 306°
2026-05-05 11:18 50.12206 5.91470 12721 ft 308 kts 306°
2026-05-05 11:18 50.13516 5.88834 12407 ft 307 kts 306°
2026-05-05 11:18 50.14818 5.86199 12076 ft 306 kts 306°
2026-05-05 11:19 50.16109 5.83569 11756 ft 304 kts 306°
2026-05-05 11:19 50.17384 5.80957 11434 ft 302 kts 306°
2026-05-05 11:19 50.18634 5.78386 11153 ft 300 kts 306°
2026-05-05 11:19 50.19890 5.75794 10839 ft 298 kts 306°
2026-05-05 11:20 50.21139 5.73212 10545 ft 296 kts 306°
2026-05-05 11:20 50.22374 5.70656 10232 ft 295 kts 306°
2026-05-05 11:20 50.23607 5.68099 9936 ft 293 kts 306°
2026-05-05 11:20 50.24832 5.65555 9617 ft 292 kts 306°
2026-05-05 11:21 50.26049 5.63024 9284 ft 290 kts 306°
2026-05-05 11:21 50.27258 5.60511 8982 ft 288 kts 306°
2026-05-05 11:21 50.28457 5.58013 8664 ft 286 kts 306°
2026-05-05 11:21 50.29646 5.55534 8380 ft 284 kts 306°
2026-05-05 11:22 50.30827 5.53071 8095 ft 281 kts 306°
2026-05-05 11:22 50.31994 5.50632 7803 ft 280 kts 306°
2026-05-05 11:22 50.32766 5.49018 7599 ft 279 kts 306°
2026-05-05 11:22 50.33927 5.46589 7329 ft 278 kts 306°
2026-05-05 11:23 50.35456 5.43386 6961 ft 277 kts 306°
2026-05-05 11:23 50.36608 5.40972 6673 ft 276 kts 307°
2026-05-05 11:23 50.37784 5.38609 6375 ft 275 kts 310°
2026-05-05 11:23 50.38578 5.37056 6181 ft 274 kts 307°
2026-05-05 11:24 50.39697 5.34648 5885 ft 273 kts 306°
2026-05-05 11:24 50.40820 5.32218 5633 ft 272 kts 306°
2026-05-05 11:24 50.41961 5.29900 5502 ft 270 kts 312°
2026-05-05 11:24 50.43259 5.27839 5375 ft 262 kts 316°
2026-05-05 11:25 50.44547 5.25899 5250 ft 251 kts 316°
2026-05-05 11:25 50.45769 5.24038 5140 ft 239 kts 316°
2026-05-05 11:25 50.46939 5.22261 4958 ft 231 kts 321°
2026-05-05 11:25 50.48379 5.21291 4574 ft 224 kts
2026-05-05 11:26 50.49764 5.22001 4334 ft 206 kts 43°
2026-05-05 11:26 50.50690 5.23614 4091 ft 195 kts 49°
2026-05-05 11:26 50.51623 5.25125 3866 ft 192 kts 46°
2026-05-05 11:26 50.52568 5.26624 3590 ft 193 kts 46°
2026-05-05 11:27 50.53502 5.28108 3326 ft 189 kts 46°
2026-05-05 11:27 50.54412 5.29558 3079 ft 184 kts 46°
2026-05-05 11:27 50.55291 5.30960 2834 ft 175 kts 46°
2026-05-05 11:27 50.56124 5.32288 2586 ft 166 kts 46°
2026-05-05 11:28 50.56898 5.33522 2396 ft 153 kts 45°
2026-05-05 11:28 50.57626 5.34683 2170 ft 147 kts 45°
2026-05-05 11:28 50.58342 5.35822 1993 ft 149 kts 44°
2026-05-05 11:28 50.59061 5.36968 1799 ft 143 kts 44°
2026-05-05 11:29 50.59738 5.38047 1577 ft 134 kts 44°
2026-05-05 11:29 50.60385 5.39077 1437 ft 135 kts 43°
2026-05-05 11:29 50.61068 5.40165 1179 ft 138 kts 44°
2026-05-05 11:29 50.61727 5.41211 1004 ft 138 kts 44°
2026-05-05 11:30 50.62403 5.42288 845 ft 139 kts 44°
2026-05-05 11:30 50.63078 5.43354 659 ft 135 kts 44°
2026-05-05 11:30 50.63661 5.44283 631 ft 99 kts 45°
2026-05-05 11:30 50.64041 5.44887 601 ft 56 kts 45°
2026-05-05 11:31 50.64291 5.45283 597 ft 48 kts 45°
2026-05-05 11:31 50.64390 5.45600 614 ft 19 kts 102°
2026-05-05 11:31 50.64374 5.45720 623 ft 6 kts 135°
2026-05-05 11:31 50.64335 5.45707 622 ft 6 kts 216°
2026-05-05 11:32 50.64299 5.45659 618 ft 8 kts 225°
2026-05-05 11:32 50.64251 5.45583 617 ft 10 kts 225°
2026-05-05 11:32 50.64201 5.45503 623 ft 10 kts 225°
2026-05-05 11:32 50.64151 5.45425 624 ft 10 kts 225°
2026-05-05 11:33 50.64104 5.45349 625 ft 10 kts 225°
2026-05-05 11:33 50.64060 5.45330 628 ft 7 kts 153°
2026-05-05 11:33 50.64024 5.45381 615 ft 8 kts 134°
2026-05-05 11:33 50.64013 5.45399 615 ft 1 kts 135°
2026-05-05 11:34 50.64010 5.45402 615 ft 0 kts 135°